Regional Weather Roundup
Issued by NWS

Home | Current Version | Previous Version | Graphics & Text | Print | Product List | Glossary On
Versions: 1 2 3 4 5 6 7 8 9 10 11 12 13 14 15 16 17 18 19 20 21 22 23 24 25 26 27 28 29 30 31 32 33 34 35 36 37 38 39 40 41 42 43 44 45 46 47 48 49 50
000
ASUS43 KOAX 260502
RWRNE

WEATHER ROUNDUP FOR NEBRASKA
NATIONAL WEATHER SERVICE OMAHA NE
1100 PM CST THU DEC 25 2014

NOTES: SATELLITE DATA IS BEING USED TO AUGMENT CLOUD COVER ABOVE
       12000 FEET.
       "FAIR" INDICATES FEW OR NO CLOUDS BELOW 12,000 FEET WITH NO
       SIGNIFICANT WEATHER AND/OR OBSTRUCTIONS TO VISIBILITY.

  * THESE STATIONS DO NOT REPORT WEATHER SUCH AS RAIN...SNOW OR FOG.

NEZ001>004-019>022-054>056-260600-
NEBRASKA PANHANDLE

CITY           SKY/WX    TMP DP  RH WIND       PRES   REMARKS
SCOTTSBLUFF    LGT SNOW  23  19  85 N9        29.92R FOG     WCI  13
ALLIANCE       LGT SNOW  22  20  92 N12       29.87R FOG     WCI  10
CHADRON        LGT SNOW  23  20  88 N17       29.95R FOG     WCI   9
KIMBALL        CLOUDY    20  18  92 N10       29.84R WCI   9
SIDNEY         LGT SNOW  21  18  88 N17       29.86R FOG     WCI   7
$$

NEZ057>060-069>072-079>082-260600-
SOUTHWEST NEBRASKA

CITY           SKY/WX    TMP DP  RH WIND       PRES   REMARKS
NORTH PLATTE   CLOUDY    27  24  89 N14G23    29.83R WCI  16
IMPERIAL       CLOUDY    28  24  85 N20       29.83R WCI  15
LEXINGTON      CLOUDY    31  27  86 N18G30    29.79R WCI  19
MCCOOK         CLOUDY    31  26  82 N21       29.79R WCI  18
OGALLALA       CLOUDY    27  23  86 N16G23    29.85R WCI  14
$$

NEZ005>010-023>029-035>040-094-260600-
NORTH CENTRAL NEBRASKA

CITY           SKY/WX    TMP DP  RH WIND       PRES   REMARKS
VALENTINE      LGT SNOW  25  21  85 N20G29    29.90S FOG     WCI  11
AINSWORTH      CLOUDY    24  22  91 N17G25    29.88R WCI  10
BROKEN BOW     CLOUDY    28  24  85 N23G30    29.80R WCI  14
O`NEILL        CLOUDY    27  27  98 N15G23    29.86R FOG     WCI  15
ORD            CLOUDY    28  24  85 N20G29    29.80R WCI  15
$$

NEZ041-046>049-061>064-073>077-083>087-260600-
SOUTH CENTRAL NEBRASKA

CITY           SKY/WX    TMP DP  RH WIND       PRES   REMARKS
GRAND ISLAND   MOCLDY    31  28  89 N16       29.78R WCI  20
AURORA         CLEAR     31  30  94 N14       29.75R WCI  21
HASTINGS       CLEAR     30  27  88 N15       29.75R WCI  19
HOLDREGE       CLOUDY    31  28  87 N20G28    29.76R WCI  19
KEARNEY *      CLOUDY    32  27  80 N21       29.77R WCI  20
YORK           CLEAR     32  30  93 N14       29.74R WCI  22
$$

NEZ011>018-030>034-042>045-260600-
NORTHEAST NEBRASKA

CITY           SKY/WX    TMP DP  RH WIND       PRES   REMARKS
NORFOLK        CLOUDY    33  30  88 N15       29.78R WCI  23
ALBION         CLOUDY    32  29  88 N18G24    29.79R WCI  21
BLAIR          PTCLDY    34  30  83 N5        29.72R WCI  30
COLUMBUS *     CLEAR     32  27  80 N13       29.76R WCI  22
FREMONT        CLEAR     32  32  98 NW3       29.74R
TEKAMAH        CLEAR     33  30  88 N10       29.75R WCI  25
WAYNE          CLOUDY    33  31  94 N12G20    29.78R WCI  24
$$

NEZ050>053-065>068-078-088>093-260600-
SOUTHEAST NEBRASKA

CITY           SKY/WX    TMP DP  RH WIND       PRES   REMARKS
LINCOLN        CLEAR     29  26  89 N9        29.73R WCI  20
OMAHA EPPLEY   PTCLDY    38  31  76 CALM      29.73R
BEATRICE       PTCLDY    38  30  72 S7        29.70R WCI  32
FALLS CITY     PTCLDY    37  30  75 SE7       29.73R WCI  32
NEBRASKA CITY  MOCLDY    38  29  69 S9        29.72R WCI  32
PLATTSMOUTH    PTCLDY    39  30  70 S9        29.72R WCI  33
$$

NEZ044-045-051>053-067-260600-
OMAHA AREA

CITY           SKY/WX    TMP DP  RH WIND       PRES   REMARKS
OMAHA EPPLEY   PTCLDY    38  31  76 CALM      29.73R
BLAIR          PTCLDY    34  30  83 N5        29.72R WCI  30
FREMONT        CLEAR     32  32  98 NW3       29.74R
MILLARD        PTCLDY    31  29  93 CALM      29.72R
OFFUTT AFB     PTCLDY    30  28  93 CALM      29.72R
PLATTSMOUTH    PTCLDY    39  30  70 S9        29.72R WCI  33
WAHOO          FAIR      32  29  89 N12       29.73R WCI  23
$$


USA.gov is the U.S. government's official web portal to all federal, state and local government web resources and services.